This is the latest recevied weather packets stored in our database for station/object KG4LKY-5. If no packets are shown the sender has not sent any weather packets the latest 10 day(s).
| Time | Temp. | Humidity | Pressure | Rain* | Wind** | Luminosity | Snow |
|---|---|---|---|---|---|---|---|
| 1777862383 | 7.22° C | 97% | 1016.8 hPa | 0 mm | - | - | - |
| 1777861782 | 7.78° C | 96% | 1016.7 hPa | 0 mm | - | - | - |
| 1777861482 | 7.22° C | 93% | 1016.7 hPa | 0 mm | - | - | - |
| 1777861181 | 7.78° C | 91% | 1016.7 hPa | 0 mm | - | - | - |
| 1777860580 | 8.33° C | 88% | 1016.7 hPa | 0 mm | - | - | - |
| 1777860280 | 8.89° C | 85% | 1016.5 hPa | 0 mm | - | - | - |
| 1777859980 | 8.89° C | 80% | 1016.4 hPa | 0 mm | - | - | - |
| 1777859679 | 8.89° C | 85% | 1016.2 hPa | 0 mm | - | - | - |
| 1777859379 | 9.44° C | 81% | 1016.2 hPa | 0 mm | - | - | - |
| 1777859079 | 10° C | 76% | 1016.1 hPa | 0 mm | - | - | - |
| 1777858778 | 10° C | 75% | 1016.1 hPa | 0 mm | - | - | - |
| 1777858478 | 10° C | 80% | 1016 hPa | 0 mm | - | - | - |
| 1777857877 | 10.56° C | 70% | 1016 hPa | 0 mm | - | - | - |
| 1777857577 | 11.11° C | 66% | 1016 hPa | 0 mm | - | - | - |
| 1777857277 | 11.11° C | 59% | 1016 hPa | 0 mm | - | - | - |
| 1777856977 | 12.22° C | 57% | 1016 hPa | 0 mm | - | - | - |
| 1777856676 | 11.67° C | 56% | 1015.7 hPa | 0 mm | - | - | - |
| 1777856376 | 12.78° C | 49% | 1015.8 hPa | 0 mm | - | - | - |
| 1777855475 | 12.78° C | 52% | 1015.6 hPa | 0 mm | - | - | - |
| 1777855175 | 13.89° C | 40% | 1015.7 hPa | 0 mm | - | - | - |
| 1777854875 | 13.89° C | 38% | 1015.8 hPa | 0 mm | - | - | - |
| 1777854574 | 15° C | 37% | 1015.9 hPa | 0 mm | - | - | - |
| 1777854274 | 15° C | 37% | 1015.8 hPa | 0 mm | - | - | - |
| 1777853974 | 14.44° C | 37% | 1015.6 hPa | 0 mm | - | - | - |
| 1777853674 | 14.44° C | 35% | 1015.6 hPa | 0 mm | - | - | - |
* Rain since midnight (hover to see other rain measurements)
** Current wind speed in m/s (hover to see current wind gust speed)